Weather History for Geneva, Switzerland

Change the Weather History Date:

Sunday, July 21, 2013

  Actual Average Record
Temperature  
Mean Temperature 73 °F -  
Max Temperature 85 °F 75 °F 93 °F (2006)
Min Temperature 61 °F 52 °F 44 °F (2001)
Cooling Degree Days 8    
Growing Degree Days 23 (Base 50)    
Moisture  
Dew Point 61 °F    
Average Humidity 64    
Maximum Humidity 100    
Minimum Humidity 28    
Precipitation  
Precipitation 0.00 in 0.10 in - ()
Sea Level Pressure  
Sea Level Pressure 30.06 in    
Wind  
Wind Speed 3 mph ()    
Max Wind Speed 10 mph    
Max Gust Speed -    
Visibility 7.4 miles    
Events Thunderstorm    
Averages and records for this station are not official NWS values.
T = Trace of Precipitation, MM = Missing Value Source: Averaged Metar Reports

Daily Weather History Graph

Daily Weather History Graph

Search for Another Location

Airport:

Trip Planner

Search our weather history database for the weather conditions in past years. The results will help you decide how hot, cold, wet, or windy it might be!

Date:

Astronomy

Jul. 21, 2013 Rise Set
Actual Time 6:04 AM CEST 9:18 PM CEST
Civil Twilight 5:28 AM CEST 9:54 PM CEST
Nautical Twilight 4:40 AM CEST 10:41 PM CEST
Astronomical Twilight 3:41 AM CEST 11:40 PM CEST
Moon 8:00 PM CEST (7/21) 4:33 AM CEST (7/21)
Length of Visible Light 16h 26m
Length of Day
15h 13m
Waxing Gibbous, 97% of the Moon is Illuminated
Jul 21
Waxing Gibbous
Jul 22
Full
Jul 29
Last Quarter
Aug 6
New
Aug 14
First Quarter

Hourly Weather History & Observations

Time (CEST) Temp. Heat Index Dew Point Humidity Pressure Visibility Wind Dir Wind Speed Gust Speed Precip Events Conditions
12:00 AM 68 °F - 60 °F 69% 30.03 in - WNW 3.5 mph - -  
12:20 AM 68.0 °F - 60.8 °F 78% 30.06 in - Variable 1.2 mph - N/A   Clear
12:50 AM 66.2 °F - 60.8 °F 83% 30.06 in - Variable 1.2 mph - N/A   Clear
1:00 AM 66 °F - 60 °F 74% 30.04 in - NW 1.2 mph - -  
1:20 AM 66.2 °F - 60.8 °F 83% 30.06 in - SE 2.3 mph - N/A   Clear
1:50 AM 64.4 °F - 60.8 °F 88% 30.06 in - Variable 1.2 mph - N/A   Clear
2:00 AM 64 °F - 60 °F 82% 30.04 in 16 mi North 1.2 mph - -   Scattered Clouds
2:20 AM 64.4 °F - 60.8 °F 88% 30.06 in - West 3.5 mph - N/A   Clear
2:50 AM 64.4 °F - 60.8 °F 88% 30.06 in - Variable 1.2 mph - N/A   Clear
3:00 AM 64 °F - 60 °F 82% 30.06 in - North 2.3 mph - -  
3:50 AM 64.4 °F - 60.8 °F 88% 30.06 in - Variable 1.2 mph - N/A   Clear
4:00 AM 64 °F - 60 °F 83% 30.06 in - West 2.3 mph - -  
4:20 AM 62.6 °F - 60.8 °F 94% 30.06 in - Calm Calm - N/A   Clear
4:50 AM 62.6 °F - 60.8 °F 94% 30.06 in - Variable 2.3 mph - N/A   Clear
5:20 AM 62.6 °F - 60.8 °F 94% 30.06 in - Variable 1.2 mph - N/A   Clear
5:50 AM 62.6 °F - 60.8 °F 94% 30.06 in - SW 3.5 mph - N/A   Clear
6:00 AM 62 °F - 59 °F 88% 30.06 in - WNW 3.5 mph - -  
6:20 AM 60.8 °F - 60.8 °F 100% 30.09 in 6.2 mi Calm Calm - N/A   Partly Cloudy
6:50 AM 60.8 °F - 60.8 °F 100% 30.09 in - Variable 1.2 mph - N/A   Clear
7:00 AM 63 °F - 60 °F 85% 30.07 in - North 1.2 mph - -  
7:20 AM 66.2 °F - 62.6 °F 88% 30.09 in - Calm Calm - N/A   Clear
7:50 AM 68.0 °F - 62.6 °F 83% 30.09 in - Variable 2.3 mph - N/A   Clear
8:00 AM 67 °F - 62 °F 79% 30.07 in 17 mi North 2.3 mph - -   Scattered Clouds
8:20 AM 71.6 °F - 60.8 °F 69% 30.09 in - Variable 1.2 mph - N/A   Clear
8:50 AM 71.6 °F - 62.6 °F 73% 30.12 in 6.2 mi ENE 3.5 mph - N/A   Partly Cloudy
9:00 AM 70 °F - 60 °F 61% 30.08 in - ENE 4.6 mph - -  
9:20 AM 71.6 °F - 60.8 °F 69% 30.12 in 6.2 mi ENE 3.5 mph - N/A   Partly Cloudy
9:50 AM 73.4 °F - 60.8 °F 65% 30.12 in 6.2 mi East 3.5 mph - N/A   Partly Cloudy
10:00 AM 72 °F - 61 °F 59% 30.07 in - East 3.5 mph - -  
10:20 AM 75.2 °F - 62.6 °F 65% 30.12 in 6.2 mi Variable 3.5 mph - N/A   Partly Cloudy
10:50 AM 75.2 °F - 62.6 °F 65% 30.12 in 6.2 mi East 4.6 mph - N/A   Partly Cloudy
11:20 AM 77.0 °F - 62.6 °F 61% 30.09 in 6.2 mi ESE 4.6 mph - N/A   Partly Cloudy
11:50 AM 78.8 °F - 60.8 °F 54% 30.09 in 6.2 mi ENE 8.1 mph - N/A   Partly Cloudy
12:00 PM 78 °F - 61 °F 46% 30.04 in - NE 6.9 mph - -  
12:20 PM 80.6 °F 81.8 °F 62.6 °F 54% 30.09 in 6.2 mi ENE 4.6 mph - N/A   Partly Cloudy
12:50 PM 80.6 °F 81.8 °F 62.6 °F 54% 30.09 in 6.2 mi East 5.8 mph - N/A   Partly Cloudy
1:00 PM 81 °F - 64 °F 48% 30.02 in - ENE 6.9 mph - -  
1:20 PM 82.4 °F 83.4 °F 62.6 °F 51% 30.09 in 6.2 mi Variable 5.8 mph - N/A   Partly Cloudy
1:50 PM 82.4 °F 83.4 °F 62.6 °F 51% 30.09 in 6.2 mi NE 6.9 mph - N/A   Partly Cloudy
2:00 PM 81 °F - 62 °F 42% 30.01 in 22 mi ENE 5.8 mph - -   Scattered Clouds
2:20 PM 82.4 °F 83.9 °F 64.4 °F 54% 30.09 in 6.2 mi ENE 5.8 mph - N/A Thunderstorm Partly Cloudy
2:50 PM 82.4 °F 83.9 °F 64.4 °F 54% 30.06 in 6.2 mi NE 6.9 mph - N/A   Partly Cloudy
3:00 PM 82 °F - 60 °F 37% 30.01 in - NE 9.2 mph - -  
3:20 PM 84.2 °F 85.0 °F 62.6 °F 48% 30.06 in 6.2 mi NE 8.1 mph - N/A   Partly Cloudy
3:50 PM 84.2 °F 83.5 °F 57.2 °F 40% 30.06 in 6.2 mi NE 9.2 mph - N/A   Partly Cloudy
4:00 PM 84 °F - 61 °F 35% 30.00 in - NE 10.4 mph - -  
4:20 PM 86.0 °F 86.1 °F 60.8 °F 43% 30.06 in 6.2 mi NE 9.2 mph - N/A   Partly Cloudy
4:50 PM 86.0 °F 86.1 °F 60.8 °F 43% 30.06 in 6.2 mi NE 8.1 mph - N/A   Partly Cloudy
5:20 PM 86.0 °F 85.4 °F 59.0 °F 40% 30.06 in 6.2 mi NE 6.9 mph - N/A   Partly Cloudy
5:50 PM 86.0 °F 86.1 °F 60.8 °F 43% 30.04 in 6.2 mi NE 6.9 mph - N/A   Partly Cloudy
6:00 PM 85 °F - 61 °F 34% 29.96 in - NE 5.8 mph - -  
6:20 PM 86.0 °F 85.4 °F 59.0 °F 40% 30.04 in 6.2 mi ENE 6.9 mph - N/A   Partly Cloudy
6:50 PM 86.0 °F 84.5 °F 55.4 °F 35% 30.04 in 6.2 mi NE 5.8 mph - N/A   Partly Cloudy
7:00 PM 85 °F - 57 °F 28% 29.97 in - NNE 3.5 mph - -  
7:20 PM 86.0 °F 84.9 °F 57.2 °F 37% 30.04 in 6.2 mi Variable 2.3 mph - N/A Thunderstorm Thunderstorm
7:50 PM 86.0 °F 85.4 °F 59.0 °F 40% 30.06 in 6.2 mi NNE 3.5 mph - N/A   Scattered Clouds
8:00 PM 83 °F - 61 °F 37% 29.99 in 19 mi North 6.9 mph - - Thunderstorm Light Thunderstorm
8:20 PM 82.4 °F 82.0 °F 57.2 °F 42% 30.06 in - North 4.6 mph - N/A   Clear
8:50 PM 80.6 °F 81.1 °F 59.0 °F 48% 30.06 in - North 3.5 mph - N/A   Clear
9:00 PM 79 °F - 58 °F 39% 30.00 in - NE 3.5 mph - -  
9:20 PM 77.0 °F - 64.4 °F 65% 30.06 in 6.2 mi East 4.6 mph - N/A   Partly Cloudy
9:50 PM 75.2 °F - 64.4 °F 69% 30.06 in - Variable 3.5 mph - N/A   Clear
10:00 PM 74 °F - 63 °F 61% 30.02 in - North 2.3 mph - -  
10:20 PM 73.4 °F - 64.4 °F 73% 30.06 in - Variable 2.3 mph - N/A   Clear
10:50 PM 71.6 °F - 64.4 °F 78% 30.06 in - Variable 1.2 mph - N/A   Clear
11:20 PM 71.6 °F - 64.4 °F 78% 30.06 in - Variable 1.2 mph - N/A   Clear
11:50 PM 71.6 °F - 64.4 °F 78% 30.09 in - NW 3.5 mph - N/A   Clear